FHY562 LJLJ-LTFM

Flight info

Callsign FHY562
Flight time 1h 56m
Altitude 37000
Route MODRO1Z MODRO DCT MAGAM DCT SOMUN DCT NISVA DCT DEDIN DCT AYTEK
Aircraft A320/M-SDE3FGHIRWY/LB1

Departure

Time 2026-05-04 15:24
Airport Ljubljana Jože Pučnik Airport (LJLJ)

Arrival

Time 2026-05-04 17:20
Airport İstanbul Airport (LTFM)
Time Latitude Longitude Altitude Speed Heading
2026-05-04 15:07 46.23053 14.45375 1258 ft 0 kts 36°
2026-05-04 15:14 46.23043 14.45363 1258 ft 4 kts 34°
2026-05-04 15:14 46.23025 14.45345 1267 ft 4 kts 44°
2026-05-04 15:14 46.23011 14.45315 1262 ft 4 kts 86°
2026-05-04 15:14 46.23016 14.45285 1260 ft 1 kts 126°
2026-05-04 15:17 46.23015 14.45286 1260 ft 2 kts 126°
2026-05-04 15:18 46.22969 14.45379 1259 ft 11 kts 125°
2026-05-04 15:18 46.22939 14.45408 1263 ft 4 kts 171°
2026-05-04 15:18 46.22907 14.45383 1264 ft 9 kts 218°
2026-05-04 15:19 46.22760 14.45458 1256 ft 13 kts 126°
2026-05-04 15:19 46.22704 14.45571 1257 ft 15 kts 126°
2026-05-04 15:19 46.22548 14.45867 1249 ft 21 kts 128°
2026-05-04 15:20 46.22484 14.45993 1248 ft 15 kts 126°
2026-05-04 15:20 46.22420 14.46121 1241 ft 17 kts 126°
2026-05-04 15:20 46.22341 14.46277 1246 ft 21 kts 126°
2026-05-04 15:20 46.22245 14.46464 1226 ft 26 kts 127°
2026-05-04 15:21 46.22151 14.46645 1221 ft 22 kts 127°
2026-05-04 15:21 46.22058 14.46826 1217 ft 18 kts 125°
2026-05-04 15:21 46.21905 14.47132 1213 ft 18 kts 127°
2026-05-04 15:22 46.21824 14.47291 1209 ft 22 kts 126°
2026-05-04 15:22 46.21723 14.47385 1206 ft 18 kts 207°
2026-05-04 15:22 46.21644 14.47180 1209 ft 0 kts 306°
2026-05-04 15:23 46.21663 14.47142 1210 ft 26 kts 306°
2026-05-04 15:23 46.21945 14.46591 1227 ft 109 kts 306°
2026-05-04 15:23 46.22535 14.45432 1260 ft 173 kts 307°
2026-05-04 15:23 46.23292 14.43966 1845 ft 187 kts 306°
2026-05-04 15:24 46.23508 14.40328 2857 ft 212 kts 230°
2026-05-04 15:24 46.20721 14.38919 3989 ft 223 kts 186°
2026-05-04 15:25 46.19163 14.38691 4651 ft 225 kts 186°
2026-05-04 15:25 46.17589 14.38458 5293 ft 228 kts 186°
2026-05-04 15:25 46.16021 14.38225 5928 ft 230 kts 186°
2026-05-04 15:26 46.12818 14.37756 7288 ft 234 kts 186°
2026-05-04 15:26 46.11182 14.37519 7998 ft 237 kts 186°
2026-05-04 15:26 46.07861 14.37297 9396 ft 243 kts 164°
2026-05-04 15:27 46.06431 14.38570 9999 ft 250 kts 130°
2026-05-04 15:27 46.05438 14.43663 10503 ft 295 kts 95°
2026-05-04 15:28 46.05138 14.50022 10926 ft 342 kts 93°
2026-05-04 15:28 46.04984 14.53529 11338 ft 355 kts 94°
2026-05-04 15:28 46.04603 14.60731 12689 ft 363 kts 95°
2026-05-04 15:29 46.04385 14.64326 13337 ft 367 kts 95°
2026-05-04 15:30 46.03426 14.79254 15837 ft 381 kts 95°
2026-05-04 15:30 46.02686 14.90803 17577 ft 391 kts 95°
2026-05-04 15:31 46.02176 14.98678 18661 ft 399 kts 95°
2026-05-04 15:31 46.02098 14.99885 18829 ft 400 kts 95°
2026-05-04 15:36 46.01742 15.05264 19539 ft 404 kts 95°
2026-05-04 15:36 46.01561 15.07992 19898 ft 406 kts 95°
2026-05-04 15:36 46.01201 15.13375 20591 ft 410 kts 95°
2026-05-04 15:37 46.00925 15.17458 21081 ft 413 kts 95°
2026-05-04 15:37 46.00650 15.21575 21554 ft 415 kts 95°
2026-05-04 15:37 46.00373 15.25730 22004 ft 418 kts 95°
2026-05-04 15:37 46.00092 15.29915 22452 ft 421 kts 95°
2026-05-04 15:38 45.99904 15.32696 22740 ft 422 kts 95°
2026-05-04 15:38 45.99616 15.36927 23159 ft 425 kts 96°
2026-05-04 15:38 45.99321 15.41206 23564 ft 427 kts 96°
2026-05-04 15:38 45.99029 15.45419 23948 ft 430 kts 96°
2026-05-04 15:39 45.98727 15.49759 24315 ft 432 kts 96°
2026-05-04 15:39 45.98427 15.54025 24667 ft 435 kts 96°
2026-05-04 15:39 45.97807 15.62773 25356 ft 439 kts 96°
2026-05-04 15:40 45.97404 15.67134 25702 ft 441 kts 102°
2026-05-04 15:40 45.96580 15.71392 26027 ft 443 kts 110°
2026-05-04 15:40 45.95337 15.75393 26348 ft 445 kts 118°
2026-05-04 15:40 45.93841 15.79300 26644 ft 447 kts 119°
2026-05-04 15:41 45.92322 15.83269 26945 ft 449 kts 119°
2026-05-04 15:41 45.90813 15.87216 27243 ft 451 kts 119°
2026-05-04 15:41 45.89298 15.91177 27505 ft 454 kts 119°
2026-05-04 15:41 45.87794 15.95117 27711 ft 457 kts 119°
2026-05-04 15:42 45.86263 15.99119 27984 ft 459 kts 119°
2026-05-04 15:42 45.84720 16.03138 28283 ft 459 kts 119°
2026-05-04 15:42 45.83173 16.07151 28541 ft 460 kts 119°
2026-05-04 15:42 45.81601 16.11211 28773 ft 462 kts 119°
2026-05-04 15:43 45.80036 16.15252 29011 ft 463 kts 119°
2026-05-04 15:43 45.78475 16.19286 29227 ft 465 kts 119°
2026-05-04 15:43 45.76902 16.23349 29504 ft 464 kts 119°
2026-05-04 15:43 45.75356 16.27331 29797 ft 463 kts 119°
2026-05-04 15:44 45.73791 16.31353 30090 ft 463 kts 119°
2026-05-04 15:44 45.72224 16.35374 30392 ft 462 kts 119°
2026-05-04 15:44 45.70698 16.39291 30660 ft 462 kts 119°
2026-05-04 15:44 45.69135 16.43304 30932 ft 461 kts 119°
2026-05-04 15:45 45.67579 16.47292 31217 ft 460 kts 119°
2026-05-04 15:45 45.66010 16.51306 31494 ft 460 kts 119°
2026-05-04 15:45 45.64450 16.55294 31771 ft 459 kts 119°
2026-05-04 15:45 45.62890 16.59266 32055 ft 459 kts 119°
2026-05-04 15:46 45.61328 16.63236 32320 ft 458 kts 119°
2026-05-04 15:46 45.59771 16.67188 32582 ft 458 kts 119°
2026-05-04 15:46 45.58208 16.71151 32845 ft 458 kts 119°
2026-05-04 15:46 45.56643 16.75116 33098 ft 457 kts 120°
2026-05-04 15:47 45.55085 16.79052 33362 ft 456 kts 120°
2026-05-04 15:47 45.53521 16.83005 33623 ft 456 kts 120°
2026-05-04 15:47 45.51963 16.86936 33882 ft 455 kts 120°
2026-05-04 15:47 45.50408 16.90851 34134 ft 455 kts 120°
2026-05-04 15:48 45.48843 16.94783 34388 ft 454 kts 120°
2026-05-04 15:48 45.47288 16.98684 34636 ft 454 kts 120°
2026-05-04 15:48 45.44176 17.06495 35107 ft 453 kts 120°
2026-05-04 15:49 45.42620 17.10397 35322 ft 452 kts 120°
2026-05-04 15:49 45.41064 17.14294 35533 ft 452 kts 120°
2026-05-04 15:49 45.39509 17.18169 35735 ft 452 kts 120°
2026-05-04 15:49 45.37944 17.22057 35916 ft 452 kts 120°
2026-05-04 15:50 45.36379 17.25936 36072 ft 452 kts 120°
2026-05-04 15:50 45.34811 17.29823 36226 ft 453 kts 120°
2026-05-04 15:50 45.33247 17.33709 36371 ft 454 kts 120°
2026-05-04 15:50 45.31703 17.37548 36547 ft 453 kts 120°
2026-05-04 15:51 45.30123 17.41471 36752 ft 452 kts 120°
2026-05-04 15:51 45.28561 17.45339 36933 ft 451 kts 120°
2026-05-04 15:51 45.25435 17.53036 37009 ft 453 kts 120°
2026-05-04 15:52 45.22279 17.60794 37009 ft 453 kts 120°
2026-05-04 15:52 45.19123 17.68522 37009 ft 453 kts 120°
2026-05-04 15:53 45.15957 17.76260 37009 ft 453 kts 120°
2026-05-04 15:53 45.12797 17.83987 37012 ft 453 kts 120°
2026-05-04 15:54 45.09620 17.91706 37018 ft 454 kts 120°
2026-05-04 15:54 45.06432 17.99419 37023 ft 454 kts 120°
2026-05-04 15:55 45.03235 18.07137 37025 ft 454 kts 120°
2026-05-04 15:55 45.00044 18.14832 37024 ft 455 kts 120°
2026-05-04 15:56 44.96836 18.22563 37030 ft 455 kts 120°
2026-05-04 15:56 44.93630 18.30251 37027 ft 455 kts 121°
2026-05-04 15:57 44.90429 18.37900 37033 ft 455 kts 121°
2026-05-04 15:57 44.87210 18.45577 37030 ft 455 kts 121°
2026-05-04 15:58 44.83989 18.53250 37027 ft 455 kts 121°
2026-05-04 15:58 44.80758 18.60904 37027 ft 454 kts 121°
2026-05-04 15:59 44.77527 18.68543 37026 ft 454 kts 121°
2026-05-04 15:59 44.74292 18.76184 37024 ft 454 kts 121°
2026-05-04 16:00 44.71053 18.83810 37024 ft 454 kts 121°
2026-05-04 16:00 44.67799 18.91445 37022 ft 455 kts 121°
2026-05-04 16:01 44.64543 18.99064 37022 ft 455 kts 121°
2026-05-04 16:01 44.61282 19.06678 37021 ft 455 kts 121°
2026-05-04 16:02 44.58035 19.14304 37020 ft 455 kts 120°
2026-05-04 16:03 44.53306 19.25793 37027 ft 454 kts 120°
2026-05-04 16:03 44.50157 19.33461 37023 ft 454 kts 120°
2026-05-04 16:04 44.46975 19.41118 37023 ft 454 kts 120°
2026-05-04 16:04 44.42182 19.52559 37028 ft 455 kts 120°
2026-05-04 16:05 44.38980 19.60183 37023 ft 454 kts 120°
2026-05-04 16:06 44.34178 19.71622 37018 ft 454 kts 120°
2026-05-04 16:07 44.27772 19.86821 37017 ft 454 kts 121°
2026-05-04 16:08 44.21332 20.01984 37018 ft 454 kts 121°
2026-05-04 16:09 44.13243 20.20929 37012 ft 456 kts 121°
2026-05-04 16:10 44.06735 20.36080 37016 ft 456 kts 121°
2026-05-04 16:11 44.00256 20.51107 37022 ft 456 kts 121°
2026-05-04 16:12 43.94103 20.65283 37023 ft 456 kts 121°
2026-05-04 16:13 43.87562 20.80275 37026 ft 455 kts 121°
2026-05-04 16:14 43.80984 20.95271 37014 ft 456 kts 121°
2026-05-04 16:16 43.72720 21.14019 37023 ft 456 kts 121°
2026-05-04 16:17 43.64444 21.32685 37031 ft 455 kts 122°
2026-05-04 16:18 43.58361 21.46299 37025 ft 455 kts 122°
2026-05-04 16:19 43.50035 21.64849 37023 ft 455 kts 122°
2026-05-04 16:20 43.41691 21.83315 37022 ft 454 kts 122°
2026-05-04 16:22 43.33322 22.01744 37013 ft 454 kts 122°
2026-05-04 16:23 43.23256 22.23748 37005 ft 455 kts 122°
2026-05-04 16:25 43.13086 22.45797 36997 ft 456 kts 122°
2026-05-04 16:26 43.01185 22.71392 37010 ft 456 kts 122°
2026-05-04 16:28 42.94121 22.90717 37003 ft 457 kts 111°
2026-05-04 16:29 42.85913 23.18915 37016 ft 457 kts 111°
2026-05-04 16:31 42.80016 23.38991 37022 ft 457 kts 112°
2026-05-04 16:32 42.72891 23.63072 37023 ft 457 kts 112°
2026-05-04 16:33 42.68104 23.79100 37023 ft 458 kts 112°
2026-05-04 16:34 42.64494 23.91125 37018 ft 458 kts 112°
2026-05-04 16:35 42.57147 24.15067 37010 ft 459 kts 114°
2026-05-04 16:36 42.53174 24.26832 37020 ft 459 kts 115°
2026-05-04 16:37 42.49208 24.38648 37027 ft 458 kts 114°
2026-05-04 16:38 42.43958 24.54356 37034 ft 457 kts 114°
2026-05-04 16:39 42.37367 24.73887 36867 ft 454 kts 115°
2026-05-04 16:40 42.34742 24.81635 36423 ft 454 kts 115°
2026-05-04 16:40 42.32125 24.89359 35977 ft 453 kts 115°
2026-05-04 16:41 42.29482 24.97092 35527 ft 454 kts 115°
2026-05-04 16:41 42.25504 25.08735 34851 ft 455 kts 115°
2026-05-04 16:42 42.21508 25.20374 34178 ft 456 kts 115°
2026-05-04 16:43 42.18831 25.28137 33722 ft 457 kts 115°
2026-05-04 16:43 42.16134 25.35935 33284 ft 458 kts 115°
2026-05-04 16:43 42.14790 25.39812 33055 ft 459 kts 115°
2026-05-04 16:44 42.09363 25.55428 32155 ft 461 kts 115°
2026-05-04 16:45 42.06638 25.63228 31703 ft 461 kts 115°
2026-05-04 16:46 42.02528 25.74965 31026 ft 462 kts 115°
2026-05-04 16:46 41.99776 25.82785 30575 ft 464 kts 115°
2026-05-04 16:47 41.97028 25.90575 30133 ft 464 kts 115°
2026-05-04 16:47 41.94263 25.98420 29679 ft 466 kts 115°
2026-05-04 16:48 41.90073 26.10238 29400 ft 467 kts 115°
2026-05-04 16:48 41.88675 26.14161 29336 ft 467 kts 116°
2026-05-04 16:49 41.85865 26.22018 29133 ft 467 kts 116°
2026-05-04 16:49 41.83057 26.29866 29009 ft 464 kts 116°
2026-05-04 16:50 41.80464 26.37398 28812 ft 437 kts 110°
2026-05-04 16:50 41.78405 26.45012 28213 ft 429 kts 110°
2026-05-04 16:51 41.76370 26.52432 27613 ft 425 kts 110°
2026-05-04 16:51 41.75295 26.56142 27308 ft 422 kts 115°
2026-05-04 16:51 41.72279 26.62783 26711 ft 418 kts 124°
2026-05-04 16:52 41.69081 26.69240 26114 ft 415 kts 123°
2026-05-04 16:52 41.67496 26.72440 25820 ft 413 kts 123°
2026-05-04 16:53 41.63679 26.78071 25212 ft 408 kts 144°
2026-05-04 16:53 41.55894 26.82051 24310 ft 401 kts 171°
2026-05-04 16:54 41.53159 26.82790 24010 ft 400 kts 162°
2026-05-04 16:55 41.46047 26.93207 22629 ft 392 kts 113°
2026-05-04 16:55 41.43860 26.99985 21878 ft 410 kts 113°
2026-05-04 16:56 41.41609 27.07013 21123 ft 410 kts 113°
2026-05-04 16:56 41.38295 27.17187 19994 ft 389 kts 114°
2026-05-04 16:57 41.37214 27.20456 19624 ft 382 kts 114°
2026-05-04 16:57 41.35103 27.26842 18869 ft 372 kts 114°
2026-05-04 16:58 41.32018 27.36200 17740 ft 365 kts 114°
2026-05-04 16:58 41.31007 27.39280 17366 ft 363 kts 114°
2026-05-04 16:59 41.29324 27.44372 16748 ft 359 kts 114°
2026-05-04 17:00 41.25331 27.56403 15364 ft 352 kts 114°
2026-05-04 17:00 41.22376 27.65298 14610 ft 348 kts 114°
2026-05-04 17:01 41.20416 27.71157 14111 ft 346 kts 114°
2026-05-04 17:01 41.18475 27.76969 13612 ft 343 kts 114°
2026-05-04 17:02 41.16546 27.82744 13111 ft 341 kts 114°
2026-05-04 17:02 41.14612 27.88486 12608 ft 339 kts 114°
2026-05-04 17:03 41.13665 27.91283 12363 ft 337 kts 114°
2026-05-04 17:03 41.12706 27.94116 12111 ft 336 kts 114°
2026-05-04 17:03 41.10807 27.99732 11606 ft 327 kts 114°
2026-05-04 17:04 41.08991 28.05116 11115 ft 312 kts 114°
2026-05-04 17:04 41.07283 28.10155 10843 ft 300 kts 108°
2026-05-04 17:05 41.05569 28.15196 10351 ft 299 kts 107°
2026-05-04 17:05 41.03854 28.20225 9852 ft 299 kts 107°
2026-05-04 17:06 41.02152 28.25241 9324 ft 297 kts 107°
2026-05-04 17:06 41.01304 28.27734 9055 ft 296 kts 107°
2026-05-04 17:07 40.99615 28.32664 8531 ft 292 kts 108°
2026-05-04 17:07 40.99058 28.34278 8349 ft 287 kts 108°
2026-05-04 17:07 40.97964 28.37450 8035 ft 278 kts 107°
2026-05-04 17:07 40.97106 28.39716 7779 ft 275 kts 112°
2026-05-04 17:08 40.96179 28.41899 7526 ft 269 kts 112°
2026-05-04 17:08 40.94368 28.46095 7143 ft 259 kts 113°
2026-05-04 17:08 40.93473 28.48162 7024 ft 259 kts 113°
2026-05-04 17:09 40.92579 28.50229 6886 ft 260 kts 114°
2026-05-04 17:09 40.91679 28.52315 6766 ft 262 kts 114°
2026-05-04 17:09 40.90772 28.54415 6633 ft 262 kts 115°
2026-05-04 17:10 40.89550 28.58800 6399 ft 249 kts 85°
2026-05-04 17:10 40.90752 28.65069 6005 ft 230 kts 64°
2026-05-04 17:11 40.91282 28.67054 5888 ft 228 kts 59°
2026-05-04 17:11 40.92083 28.68774 5762 ft 220 kts 43°
2026-05-04 17:11 40.94511 28.71049 5501 ft 212 kts 25°
2026-05-04 17:12 40.95802 28.71993 5372 ft 212 kts 25°
2026-05-04 17:12 40.98416 28.73312 5126 ft 194 kts 359°
2026-05-04 17:13 41.02049 28.73243 5001 ft 149 kts 358°
2026-05-04 17:14 41.04964 28.73187 4544 ft 137 kts 358°
2026-05-04 17:14 41.05913 28.73168 4360 ft 136 kts 359°
2026-05-04 17:14 41.07798 28.73132 3992 ft 136 kts 359°
2026-05-04 17:15 41.08736 28.73114 3815 ft 134 kts 359°
2026-05-04 17:15 41.10611 28.73078 3451 ft 134 kts
2026-05-04 17:16 41.12481 28.73042 3070 ft 134 kts
2026-05-04 17:16 41.15258 28.72988 2534 ft 133 kts
2026-05-04 17:17 41.16172 28.72970 2358 ft 132 kts 360°
2026-05-04 17:17 41.18917 28.72917 1818 ft 130 kts
2026-05-04 17:18 41.19824 28.72900 1634 ft 132 kts 360°
2026-05-04 17:18 41.21642 28.72864 1276 ft 131 kts 359°
2026-05-04 17:19 41.23456 28.72829 902 ft 129 kts 359°
2026-05-04 17:19 41.25247 28.72794 568 ft 129 kts 358°
2026-05-04 17:20 41.26964 28.72771 334 ft 114 kts
2026-05-04 17:20 41.27819 28.72734 332 ft 25 kts
2026-05-04 17:20 41.27968 28.72767 332 ft 23 kts 23°
2026-05-04 17:21 41.28134 28.72926 332 ft 10 kts 118°
2026-05-04 17:21 41.28009 28.72964 329 ft 11 kts 178°
2026-05-04 17:22 41.27916 28.72965 333 ft 17 kts 181°
2026-05-04 17:22 41.27830 28.72966 333 ft 11 kts 179°
2026-05-04 17:23 41.27633 28.72971 330 ft 8 kts 179°
2026-05-04 17:23 41.27580 28.72972 332 ft 7 kts 179°
2026-05-04 17:23 41.27493 28.72974 332 ft 5 kts 179°
2026-05-04 17:24 41.27459 28.72975 331 ft 4 kts 179°
2026-05-04 17:24 41.27401 28.72985 331 ft 1 kts 141°
2026-05-04 17:25 41.27395 28.72996 332 ft 5 kts 120°
2026-05-04 17:25 41.27392 28.73175 334 ft 8 kts 90°
2026-05-04 17:26 41.27394 28.73305 334 ft 6 kts 89°
2026-05-04 17:26 41.27395 28.73423 334 ft 3 kts 89°
2026-05-04 17:27 41.27396 28.73488 334 ft 9 kts 88°
2026-05-04 17:27 41.27399 28.73610 334 ft 4 kts 88°
2026-05-04 17:28 41.27400 28.73664 334 ft 2 kts 88°
2026-05-04 17:29 41.27400 28.73694 334 ft 3 kts 88°
2026-05-04 17:29 41.27406 28.74040 331 ft 21 kts 92°
2026-05-04 17:30 41.27382 28.74589 334 ft 13 kts 158°
2026-05-04 17:31 41.27222 28.74603 334 ft 12 kts 179°
2026-05-04 17:31 41.27009 28.74607 332 ft 9 kts 179°
2026-05-04 17:32 41.26879 28.74610 332 ft 15 kts 179°
2026-05-04 17:33 41.26593 28.74616 330 ft 12 kts 179°
2026-05-04 17:33 41.26515 28.74604 333 ft 11 kts 196°
2026-05-04 17:34 41.26406 28.74450 333 ft 5 kts 213°
2026-05-04 17:34 41.26381 28.74432 333 ft 3 kts 210°
2026-05-04 17:35 41.26357 28.74413 330 ft 0 kts 210°